Weather History for Blacksburg, VA

Change the Weather History Date:

Friday, October 14, 2011

  Actual Average Record
Temperature  
Mean Temperature 57 °F 53 °F  
Max Temperature 62 °F 66 °F 84 °F (1954)
Min Temperature 52 °F 40 °F 21 °F (1988)
Degree Days  
Heating Degree Days 8 12  
Month to date heating degree days 133 146  
Since 1 July heating degree days 211 277  
Cooling Degree Days 0 0  
Month to date cooling degree days 0 1  
Year to date cooling degree days 870 570  
Growing Degree Days 10 (Base 50)    
Moisture  
Dew Point 49 °F    
Average Humidity 70    
Maximum Humidity 100    
Minimum Humidity 40    
Precipitation  
Precipitation 0.25 in 0.09 in 1.26 in (1959)
Month to date precipitation 1.76 1.26  
Year to date precipitation 35.18 33.55  
Snow  
Snow 0.00 in - - ()
Month to date snowfall 0.0  
Since 1 July snowfall 0.0  
Since 1 September snowfall 0.0  
Snow Depth 0.00 in    
Sea Level Pressure  
Sea Level Pressure 29.67 in    
Wind  
Wind Speed 7 mph (West)    
Max Wind Speed 17 mph    
Max Gust Speed 33 mph    
Visibility 9 miles    
Events Rain    
T = Trace of Precipitation, MM = Missing Value Source: NWS Daily Summary

Daily Weather History Graph

Daily Weather History Graph

Search for Another Location

Airport:

Trip Planner

Search our weather history database for the weather conditions in past years. The results will help you decide how hot, cold, wet, or windy it might be!

Date:

Astronomy

Oct. 14, 2011 Rise Set
Actual Time 7:28 AM EDT 6:46 PM EDT
Civil Twilight 7:02 AM EDT 7:12 PM EDT
Nautical Twilight 6:31 AM EDT 7:42 PM EDT
Astronomical Twilight 6:01 AM EDT 8:12 PM EDT
Moon 8:03 PM EDT (10/14) 9:50 AM EDT (10/14)
Length of Visible Light 12h 10m
Length of Day
11h 18m
Waning Gibbous, 94% of the Moon is Illuminated
Oct 14
Waning Gibbous
Oct 19
Last Quarter
Oct 26
New
Nov 2
First Quarter
Nov 10
Full

Hourly Weather History & Observations

Time (EDT) Temp. Dew Point Humidity Pressure Visibility Wind Dir Wind Speed Gust Speed Precip Events Conditions
12:15 AM 57.2 °F 57.2 °F 100% 29.64 in 7.0 mi Calm Calm - N/A   Mostly Cloudy
12:35 AM 57.2 °F 57.2 °F 100% 29.64 in 7.0 mi Calm Calm - N/A   Scattered Clouds
12:55 AM 57.2 °F 57.2 °F 100% 29.63 in 10.0 mi Calm Calm - N/A   Mostly Cloudy
1:35 AM 57.2 °F 57.2 °F 100% 29.63 in 7.0 mi Calm Calm - N/A   Mostly Cloudy
2:15 AM 57.2 °F 57.2 °F 100% 29.62 in 7.0 mi Calm Calm - 0.01 in   Drizzle
2:35 AM 57.2 °F 57.2 °F 100% 29.63 in 7.0 mi Calm Calm - 0.01 in Rain Light Rain
2:55 AM 57.2 °F 57.2 °F 100% 29.62 in 10.0 mi Calm Calm - 0.02 in   Drizzle
3:15 AM 57.2 °F 57.2 °F 100% 29.62 in 7.0 mi Calm Calm - 0.01 in Rain Light Rain
3:35 AM 57.2 °F 57.2 °F 100% 29.62 in 7.0 mi Calm Calm - 0.02 in Rain Rain
3:55 AM 57.2 °F 57.2 °F 100% 29.61 in 10.0 mi Calm Calm - 0.05 in Rain Light Rain
4:15 AM 57.2 °F 57.2 °F 100% 29.61 in 7.0 mi Calm Calm - 0.03 in Rain Rain
4:35 AM 57.2 °F 57.2 °F 100% 29.61 in 7.0 mi SW 3.5 mph - 0.04 in Rain Heavy Rain
4:55 AM 57.2 °F 57.2 °F 100% 29.61 in 7.0 mi WSW 4.6 mph - 0.07 in Rain Rain
5:15 AM 57.2 °F 57.2 °F 100% 29.61 in 10.0 mi WSW 4.6 mph - 0.02 in Rain Rain
5:35 AM 57.2 °F 57.2 °F 100% 29.60 in 10.0 mi WSW 5.8 mph - 0.05 in Rain Rain
5:55 AM 57.2 °F 57.2 °F 100% 29.60 in 10.0 mi West 3.5 mph - 0.05 in Rain Light Rain
6:15 AM 57.2 °F 57.2 °F 100% 29.61 in 10.0 mi WSW 4.6 mph - 0.01 in Rain Rain
6:35 AM 57.2 °F 57.2 °F 100% 29.62 in 5.0 mi West 6.9 mph - 0.04 in Rain Heavy Rain
6:55 AM 55.4 °F 55.4 °F 100% 29.63 in 10.0 mi West 10.4 mph 18.4 mph 0.05 in   Overcast
7:15 AM 55.4 °F 53.6 °F 94% 29.64 in 10.0 mi WNW 9.2 mph 17.3 mph N/A Rain Light Rain
7:35 AM 55.4 °F 53.6 °F 94% 29.64 in 10.0 mi West 10.4 mph 20.7 mph N/A   Light Drizzle
7:55 AM 55.4 °F 51.8 °F 88% 29.64 in 10.0 mi WNW 6.9 mph - N/A   Mostly Cloudy
8:15 AM 55.4 °F 51.8 °F 88% 29.65 in 10.0 mi West 5.8 mph - N/A   Overcast
8:35 AM 55.4 °F 51.8 °F 88% 29.66 in 10.0 mi West 10.4 mph 17.3 mph N/A   Mostly Cloudy
9:15 AM 57.2 °F 51.8 °F 82% 29.67 in 10.0 mi West 11.5 mph 21.9 mph N/A   Mostly Cloudy
9:35 AM 57.2 °F 50.0 °F 77% 29.66 in 10.0 mi West 9.2 mph 20.7 mph N/A   Scattered Clouds
9:55 AM 59.0 °F 48.2 °F 67% 29.67 in 10.0 mi West 13.8 mph 21.9 mph N/A   Clear
10:15 AM 59.0 °F 48.2 °F 67% 29.68 in 10.0 mi WNW 11.5 mph 21.9 mph N/A   Scattered Clouds
10:35 AM 60.8 °F 48.2 °F 63% 29.69 in 10.0 mi WNW 12.7 mph 24.2 mph N/A   Scattered Clouds
10:55 AM 60.8 °F 46.4 °F 59% 29.69 in 10.0 mi West 15.0 mph 25.3 mph N/A   Scattered Clouds
11:15 AM 60.8 °F 46.4 °F 59% 29.69 in 10.0 mi West 16.1 mph 28.8 mph N/A   Clear
11:35 AM 60.8 °F 46.4 °F 59% 29.70 in 10.0 mi West 12.7 mph 25.3 mph N/A   Clear
12:15 PM 60.8 °F 46.4 °F 59% 29.71 in 10.0 mi WNW 11.5 mph 24.2 mph N/A   Scattered Clouds
12:35 PM 62.6 °F 46.4 °F 55% 29.70 in 10.0 mi WNW 9.2 mph 26.5 mph N/A   Mostly Cloudy
12:55 PM 60.8 °F 44.6 °F 55% 29.70 in 10.0 mi West 15.0 mph 29.9 mph N/A   Scattered Clouds
1:15 PM 62.6 °F 44.6 °F 52% 29.69 in 10.0 mi West 18.4 mph 29.9 mph N/A   Scattered Clouds
1:35 PM 62.6 °F 44.6 °F 52% 29.69 in 10.0 mi West 11.5 mph 34.5 mph N/A   Scattered Clouds
1:55 PM 64.4 °F 42.8 °F 45% 29.68 in 10.0 mi West 17.3 mph 33.4 mph N/A   Scattered Clouds
2:15 PM 62.6 °F 41.0 °F 45% 29.69 in 10.0 mi North - - N/A   Scattered Clouds
2:35 PM 64.4 °F 41.0 °F 42% 29.69 in 10.0 mi WNW 21.9 mph 34.5 mph N/A   Clear
2:55 PM 64.4 °F 39.2 °F 40% 29.69 in 10.0 mi West 17.3 mph 26.5 mph N/A   Clear
3:15 PM 64.4 °F 39.2 °F 40% 29.69 in 10.0 mi West 18.4 mph 24.2 mph N/A   Clear
3:35 PM 64.4 °F 41.0 °F 42% 29.69 in 10.0 mi WNW 16.1 mph 25.3 mph N/A   Clear
3:55 PM 62.6 °F 39.2 °F 42% 29.70 in 10.0 mi West 12.7 mph 29.9 mph N/A   Clear
4:15 PM 62.6 °F 39.2 °F 42% 29.71 in 10.0 mi West 9.2 mph 21.9 mph N/A   Clear
4:35 PM 62.6 °F 41.0 °F 45% 29.71 in 10.0 mi WNW 11.5 mph 24.2 mph N/A   Scattered Clouds
4:55 PM 62.6 °F 41.0 °F 45% 29.72 in 10.0 mi West 9.2 mph 18.4 mph N/A   Scattered Clouds
5:15 PM 62.6 °F 41.0 °F 45% 29.73 in 10.0 mi WNW 9.2 mph 17.3 mph N/A   Mostly Cloudy
5:35 PM 60.8 °F 41.0 °F 48% 29.74 in 10.0 mi WNW 8.1 mph 18.4 mph N/A   Mostly Cloudy
5:55 PM 60.8 °F 39.2 °F 45% 29.74 in 10.0 mi West 9.2 mph 17.3 mph N/A   Scattered Clouds
6:15 PM 60.8 °F 39.2 °F 45% 29.74 in 10.0 mi West 5.8 mph 16.1 mph N/A   Clear
6:35 PM 59.0 °F 41.0 °F 51% 29.75 in 10.0 mi West 3.5 mph - N/A   Clear
6:55 PM 57.2 °F 42.8 °F 59% 29.76 in 10.0 mi West 4.6 mph - N/A   Clear
7:15 PM 55.4 °F 42.8 °F 63% 29.77 in 10.0 mi WSW 3.5 mph - N/A   Clear
7:35 PM 53.6 °F 42.8 °F 67% 29.78 in 10.0 mi Calm Calm - N/A   Clear
7:55 PM 53.6 °F 41.0 °F 62% 29.79 in 10.0 mi West 3.5 mph - N/A   Clear
8:15 PM 55.4 °F 41.0 °F 58% 29.79 in 10.0 mi West 4.6 mph - N/A   Clear
8:35 PM 55.4 °F 42.8 °F 63% 29.80 in 10.0 mi West 4.6 mph - N/A   Clear
8:55 PM 55.4 °F 42.8 °F 63% 29.80 in 10.0 mi West 4.6 mph - N/A   Clear
9:15 PM 53.6 °F 42.8 °F 67% 29.81 in 10.0 mi West 3.5 mph - N/A   Clear
9:35 PM 53.6 °F 42.8 °F 67% 29.82 in 10.0 mi West 3.5 mph - N/A   Clear
9:55 PM 55.4 °F 41.0 °F 58% 29.82 in 10.0 mi West 4.6 mph - N/A   Clear
10:15 PM 53.6 °F 42.8 °F 67% 29.83 in 10.0 mi West 4.6 mph - N/A   Clear
10:55 PM 53.6 °F 41.0 °F 62% 29.83 in 10.0 mi West 3.5 mph - N/A   Clear
11:15 PM 53.6 °F 41.0 °F 62% 29.84 in 10.0 mi West 4.6 mph - N/A   Clear
11:35 PM 53.6 °F 41.0 °F 62% 29.84 in 10.0 mi WSW 4.6 mph - N/A   Clear
11:55 PM 53.6 °F 39.2 °F 58% 29.84 in 10.0 mi West 3.5 mph - N/A   Clear